Weather History for Lawrence, MA

Change the Weather History Date:

Tuesday, May 6, 2014

  Actual Average Record
Temperature  
Mean Temperature 54 °F -  
Max Temperature 64 °F 61 °F 90 °F (1930)
Min Temperature 46 °F 42 °F 32 °F (1992)
Degree Days  
Heating Degree Days 11    
Growing Degree Days 4 (Base 50)    
Moisture  
Dew Point 28 °F    
Average Humidity 38    
Maximum Humidity 66    
Minimum Humidity 21    
Precipitation  
Precipitation 0.00 in - - ()
Sea Level Pressure  
Sea Level Pressure 29.91 in    
Wind  
Wind Speed 8 mph (NW)    
Max Wind Speed 15 mph    
Max Gust Speed 26 mph    
Visibility 10 miles    
Events      
Averages and records for this station are not official NWS values.
T = Trace of Precipitation, MM = Missing Value Source: NWS Daily Summary

Daily Weather History Graph

Daily Weather History Graph

Search for Another Location

Airport:

Trip Planner

Search our weather history database for the weather conditions in past years. The results will help you decide how hot, cold, wet, or windy it might be!

Date:

Astronomy

May. 06, 2014 Rise Set
Actual Time 5:32 AM EDT 7:50 PM EDT
Civil Twilight 5:01 AM EDT 8:21 PM EDT
Nautical Twilight 4:22 AM EDT 9:01 PM EDT
Astronomical Twilight 3:39 AM EDT 9:44 PM EDT
Moon 11:47 AM EDT (5/6) 1:06 AM EDT (5/6)
Length of Visible Light 15h 20m
Length of Day
14h 18m
Waxing Crescent, 46% of the Moon is Illuminated
May 6
Waxing Crescent
May 6
First Quarter
May 14
Full
May 21
Last Quarter
May 28
New

Hourly Weather History & Observations

Time (EDT) Temp. Windchill Dew Point Humidity Pressure Visibility Wind Dir Wind Speed Gust Speed Precip Events Conditions
12:54 AM 48.0 °F - 36.0 °F 63% 29.88 in 10.0 mi WNW 5.8 mph - N/A   Clear
1:54 AM 46.9 °F - 36.0 °F 66% 29.87 in 10.0 mi Calm Calm - N/A   Clear
2:54 AM 46.0 °F 44.8 °F 35.1 °F 66% 29.86 in 10.0 mi West 3.5 mph - N/A   Clear
7:54 AM 51.1 °F - 36.0 °F 56% 29.89 in 10.0 mi WNW 6.9 mph - N/A   Clear
8:54 AM 54.0 °F - 35.1 °F 49% 29.88 in 10.0 mi WNW 13.8 mph 20.7 mph N/A   Clear
10:54 AM 57.9 °F - 30.0 °F 35% 29.87 in 10.0 mi NW 9.2 mph 19.6 mph N/A   Clear
11:54 AM 61.0 °F - 27.0 °F 27% 29.86 in 10.0 mi WNW 12.7 mph 21.9 mph N/A   Clear
12:54 PM 62.1 °F - 26.1 °F 25% 29.85 in 10.0 mi WNW 13.8 mph 25.3 mph N/A   Mostly Cloudy
1:54 PM 61.0 °F - 26.1 °F 26% 29.85 in 10.0 mi NW 10.4 mph 25.3 mph N/A   Overcast
2:54 PM 60.1 °F - 28.0 °F 30% 29.86 in 10.0 mi WSW 15.0 mph 26.5 mph N/A   Scattered Clouds
3:54 PM 62.1 °F - 27.0 °F 26% 29.85 in 10.0 mi NW 9.2 mph 18.4 mph N/A   Scattered Clouds
4:54 PM 62.1 °F - 24.1 °F 23% 29.86 in 10.0 mi NW 15.0 mph 25.3 mph N/A   Partly Cloudy
5:54 PM 60.1 °F - 23.0 °F 24% 29.88 in 10.0 mi NNW 15.0 mph 20.7 mph N/A   Overcast
6:54 PM 60.1 °F - 19.9 °F 21% 29.91 in 10.0 mi NNW 10.4 mph - N/A   Scattered Clouds
7:54 PM 55.9 °F - 23.0 °F 28% 29.95 in 10.0 mi Variable 5.8 mph - N/A   Clear
8:54 PM 52.0 °F - 34.0 °F 50% 29.99 in 10.0 mi Calm Calm - N/A   Clear
9:54 PM 52.0 °F - 24.1 °F 34% 30.02 in 10.0 mi NW 4.6 mph - N/A   Clear
10:54 PM 52.0 °F - 24.1 °F 34% 30.04 in 10.0 mi NNW 5.8 mph - N/A   Clear
11:54 PM 51.1 °F - 25.0 °F 36% 30.05 in 10.0 mi NNW 8.1 mph - N/A   Clear